| time (UTC) | temp F | wind direction | speed MPH | gust MPH | rain 1hr in | rain 24hr in | rain mn in | humidity % | barometer mb |
| 20260905164546 | 79 | 22 | 0.0 | 2.0 | 0.08 | 0.18 | 0.17 | 97 | 1013.2 |
| 20260905163044 | 79 | 12 | 6.0 | 10.0 | 0.17 | 0.18 | 0.17 | 96 | 1013.0 |
| 20260905161557 | 80 | 163 | 0.0 | 1.0 | 0.17 | 0.18 | 0.17 | 96 | 1012.9 |
| 20260905160044 | 80 | 151 | 0.0 | 2.0 | 0.17 | 0.18 | 0.17 | 95 | 1012.8 |
| 20260905154542 | 84 | 214 | 0.0 | 3.0 | 0.07 | 0.08 | 0.07 | 93 | 1012.7 |
| 20260905153039 | 88 | 238 | 0.0 | 1.0 | 0.00 | 0.01 | 0.00 | 79 | 1012.7 |
| 20260905151539 | 88 | 229 | 0.0 | 1.0 | 0.00 | 0.01 | 0.00 | 79 | 1012.8 |
| 20260905150039 | 88 | 229 | 0.0 | 3.0 | 0.00 | 0.01 | 0.00 | 80 | 1012.7 |
| 20260905144534 | 86 | 222 | 0.0 | 1.0 | 0.00 | 0.01 | 0.00 | 84 | 1012.7 |
| 20260905143036 | 86 | 219 | 0.0 | 1.0 | 0.00 | 0.01 | 0.00 | 84 | 1012.7 |
| 20260905141534 | 84 | 219 | 0.0 | 1.0 | 0.00 | 0.01 | 0.00 | 93 | 1012.7 |
| 20260905140025 | 82 | 219 | 0.0 | 2.0 | 0.00 | 0.01 | 0.00 | 98 | 1012.5 |
| 20260905134522 | 81 | 219 | 0.0 | 0.0 | 0.00 | 0.01 | 0.00 | 98 | 1012.4 |
| 20260905133020 | 80 | 219 | 0.0 | 0.0 | 0.00 | 0.01 | 0.00 | 98 | 1012.6 |
| 20260905131517 | 79 | 219 | 0.0 | 0.0 | 0.00 | 0.01 | 0.00 | 98 | 1012.5 |
| 20260905130016 | 78 | 219 | 0.0 | 0.0 | 0.00 | 0.01 | 0.00 | 98 | 1012.3 |
| 20260905124513 | 78 | 219 | 0.0 | 0.0 | 0.00 | 0.01 | 0.00 | 98 | 1012.1 |
| 20260905123017 | 78 | 219 | 0.0 | 0.0 | 0.00 | 0.01 | 0.00 | 98 | 1011.9 |
| 20260905121510 | 77 | 219 | 0.0 | 0.0 | 0.00 | 0.01 | 0.00 | 98 | 1011.8 |
| 20260905120009 | 77 | 219 | 0.0 | 0.0 | 0.00 | 0.01 | 0.00 | 98 | 1011.6 |
| 20260905114508 | 77 | 219 | 0.0 | 0.0 | 0.00 | 0.01 | 0.00 | 98 | 1011.4 |
| 20260905113008 | 77 | 219 | 0.0 | 0.0 | 0.00 | 0.01 | 0.00 | 98 | 1011.3 |
| 20260905111507 | 77 | 219 | 0.0 | 0.0 | 0.00 | 0.01 | 0.00 | 98 | 1011.1 |
| 20260905110007 | 77 | 219 | 0.0 | 0.0 | 0.00 | 0.01 | 0.00 | 98 | 1011.0 |
| 20260905104506 | 77 | 219 | 0.0 | 0.0 | 0.00 | 0.01 | 0.00 | 98 | 1010.9 |
| 20260905103006 | 77 | 219 | 0.0 | 0.0 | 0.00 | 0.01 | 0.00 | 98 | 1010.9 |
| 20260905101505 | 77 | 219 | 0.0 | 0.0 | 0.00 | 0.01 | 0.00 | 98 | 1010.9 |
| 20260905100005 | 77 | 219 | 0.0 | 0.0 | 0.00 | 0.01 | 0.00 | 98 | 1011.0 |
| 20260905094503 | 77 | 219 | 0.0 | 0.0 | 0.00 | 0.01 | 0.00 | 98 | 1011.0 |
| 20260905093003 | 77 | 219 | 0.0 | 0.0 | 0.00 | 0.01 | 0.00 | 98 | 1010.9 |
| 20260905091502 | 77 | 219 | 0.0 | 0.0 | 0.00 | 0.01 | 0.00 | 98 | 1011.0 |
| 20260905090001 | 77 | 219 | 0.0 | 0.0 | 0.00 | 0.01 | 0.00 | 98 | 1011.0 |
| 20260905084613 | 77 | 219 | 0.0 | 0.0 | 0.00 | 0.01 | 0.00 | 98 | 1010.7 |
| 20260905083059 | 77 | 219 | 0.0 | 0.0 | 0.00 | 0.01 | 0.00 | 98 | 1010.8 |
| 20260905081559 | 77 | 219 | 0.0 | 0.0 | 0.00 | 0.01 | 0.00 | 98 | 1010.7 |
| 20260905080107 | 77 | 219 | 0.0 | 0.0 | 0.00 | 0.01 | 0.00 | 98 | 1010.7 |
| 20260905074614 | 77 | 219 | 0.0 | 0.0 | 0.00 | 0.01 | 0.00 | 98 | 1010.8 |
| 20260905073058 | 77 | 219 | 0.0 | 0.0 | 0.00 | 0.01 | 0.00 | 98 | 1010.8 |
| 20260905071554 | 78 | 219 | 0.0 | 0.0 | 0.00 | 0.01 | 0.00 | 98 | 1011.2 |
| 20260905070107 | 78 | 219 | 0.0 | 0.0 | 0.00 | 0.01 | 0.00 | 98 | 1011.2 |
| 20260905064550 | 78 | 219 | 0.0 | 0.0 | 0.00 | 0.01 | 0.00 | 98 | 1011.3 |
| 20260905063048 | 78 | 219 | 0.0 | 0.0 | 0.00 | 0.01 | 0.00 | 98 | 1011.5 |
| 20260905061551 | 78 | 219 | 0.0 | 0.0 | 0.00 | 0.01 | 0.00 | 98 | 1011.7 |
| 20260905060046 | 78 | 219 | 0.0 | 0.0 | 0.00 | 0.01 | 0.00 | 98 | 1011.7 |
| 20260905054550 | 79 | 219 | 0.0 | 0.0 | 0.00 | 0.01 | 0.00 | 98 | 1011.7 |
| 20260905053046 | 79 | 219 | 0.0 | 0.0 | 0.00 | 0.01 | 0.00 | 98 | 1011.7 |
| 20260905051544 | 79 | 219 | 0.0 | 0.0 | 0.00 | 0.01 | 0.00 | 98 | 1011.7 |
| 20260905050046 | 79 | 219 | 0.0 | 0.0 | 0.00 | 0.01 | 0.00 | 98 | 1011.6 |
| 20260905044540 | 79 | 219 | 0.0 | 0.0 | 0.00 | 0.01 | 0.01 | 98 | 1011.7 |
| 20260905043041 | 79 | 219 | 0.0 | 0.0 | 0.00 | 0.01 | 0.01 | 98 | 1011.7 |
| 20260905041543 | 79 | 219 | 0.0 | 0.0 | 0.00 | 0.01 | 0.01 | 98 | 1011.9 |
| 20260905040036 | 79 | 219 | 0.0 | 0.0 | 0.00 | 0.01 | 0.01 | 98 | 1012.0 |
| 20260905034539 | 79 | 219 | 0.0 | 0.0 | 0.00 | 0.01 | 0.01 | 97 | 1012.0 |
| 20260905033046 | 79 | 219 | 0.0 | 0.0 | 0.00 | 0.01 | 0.01 | 97 | 1012.0 |
| 20260905031542 | 79 | 219 | 0.0 | 1.0 | 0.00 | 0.01 | 0.01 | 97 | 1012.1 |
| 20260905030045 | 80 | 170 | 0.0 | 1.0 | 0.00 | 0.01 | 0.01 | 97 | 1012.1 |
| 20260905024533 | 79 | 170 | 0.0 | 1.0 | 0.00 | 0.01 | 0.01 | 97 | 1012.1 |
| 20260905023034 | 79 | 170 | 0.0 | 0.0 | 0.01 | 0.01 | 0.01 | 97 | 1011.8 |
| 20260905021532 | 79 | 169 | 0.0 | 0.0 | 0.01 | 0.01 | 0.01 | 97 | 1011.6 |
| 20260905020031 | 79 | 162 | 0.0 | 0.0 | 0.01 | 0.01 | 0.01 | 96 | 1011.4 |
| 20260905014530 | 80 | 162 | 0.0 | 1.0 | 0.01 | 0.01 | 0.01 | 95 | 1011.3 |
| 20260905013030 | 84 | 210 | 0.0 | 1.0 | 0.00 | 0.00 | 0.00 | 83 | 1011.3 |
| 20260905011531 | 85 | 207 | 0.0 | 1.0 | 0.00 | 0.00 | 0.00 | 82 | 1011.1 |
| 20260905010029 | 85 | 200 | 0.0 | 4.0 | 0.00 | 0.00 | 0.00 | 81 | 1011.0 |
| 20260905004529 | 86 | 219 | 0.0 | 4.0 | 0.00 | 0.00 | 0.00 | 80 | 1010.8 |
| 20260905003030 | 86 | 203 | 2.0 | 5.0 | 0.00 | 0.00 | 0.00 | 80 | 1010.7 |
| 20260905001528 | 87 | 214 | 0.0 | 4.0 | 0.00 | 0.00 | 0.00 | 79 | 1010.8 |
| 20260905000027 | 88 | 191 | 1.0 | 6.0 | 0.00 | 0.00 | 0.00 | 79 | 1010.8 |
| 20260904234537 | 89 | 216 | 1.0 | 4.0 | 0.00 | 0.00 | 0.00 | 78 | 1010.6 |
| 20260904233031 | 89 | 214 | 0.0 | 1.0 | 0.00 | 0.00 | 0.00 | 79 | 1010.6 |
| 20260904231527 | 90 | 195 | 0.0 | 3.0 | 0.00 | 0.00 | 0.00 | 77 | 1010.7 |
| 20260904230025 | 92 | 239 | 0.0 | 7.0 | 0.00 | 0.00 | 0.00 | 76 | 1010.7 |
| 20260904224526 | 93 | 201 | 0.0 | 3.0 | 0.00 | 0.00 | 0.00 | 75 | 1010.7 |
| 20260904223024 | 93 | 243 | 0.0 | 6.0 | 0.00 | 0.00 | 0.00 | 75 | 1010.7 |
| 20260904221527 | 94 | 211 | 0.0 | 4.0 | 0.00 | 0.00 | 0.00 | 73 | 1010.5 |
| 20260904220022 | 94 | 229 | 0.0 | 5.0 | 0.00 | 0.00 | 0.00 | 74 | 1010.6 |
| 20260904214522 | 94 | 198 | 2.0 | 5.0 | 0.00 | 0.00 | 0.00 | 72 | 1010.8 |
| 20260904213020 | 93 | 209 | 2.0 | 5.0 | 0.00 | 0.00 | 0.00 | 72 | 1010.8 |
| 20260904211518 | 94 | 29 | 0.0 | 2.0 | 0.00 | 0.00 | 0.00 | 75 | 1011.1 |
| 20260904210022 | 92 | 139 | 0.0 | 1.0 | 0.00 | 0.00 | 0.00 | 75 | 1011.3 |
| 20260904204517 | 91 | 210 | 1.0 | 7.0 | 0.00 | 0.00 | 0.00 | 74 | 1011.5 |
| 20260904203020 | 94 | 270 | 0.0 | 5.0 | 0.00 | 0.00 | 0.00 | 73 | 1011.5 |
| 20260904201514 | 95 | 227 | 0.0 | 4.0 | 0.00 | 0.00 | 0.00 | 74 | 1011.9 |
| 20260904200015 | 92 | 43 | 0.0 | 6.0 | 0.00 | 0.00 | 0.00 | 75 | 1011.8 |
| 20260904194512 | 90 | 16 | 1.0 | 8.0 | 0.00 | 0.00 | 0.00 | 72 | 1011.9 |
| 20260904193010 | 86 | 39 | 0.0 | 9.0 | 0.00 | 0.00 | 0.00 | 76 | 1012.1 |
| 20260904191513 | 88 | 13 | 7.0 | 16.0 | 0.00 | 0.00 | 0.00 | 75 | 1012.3 |
| 20260904190014 | 94 | 276 | 0.0 | 3.0 | 0.00 | 0.00 | 0.00 | 76 | 1012.4 |
| 20260904184507 | 92 | 195 | 0.0 | 4.0 | 0.00 | 0.00 | 0.00 | 76 | 1012.6 |
| 20260904183006 | 92 | 218 | 0.0 | 3.0 | 0.00 | 0.00 | 0.00 | 75 | 1012.7 |
| 20260904181504 | 92 | 240 | 0.0 | 6.0 | 0.00 | 0.00 | 0.00 | 77 | 1013.0 |
| 20260904180003 | 89 | 263 | 0.0 | 4.0 | 0.00 | 0.00 | 0.00 | 79 | 1013.2 |
| 20260904174503 | 91 | 282 | 0.0 | 3.0 | 0.00 | 0.00 | 0.00 | 77 | 1013.4 |
| 20260904173002 | 91 | 358 | 0.0 | 4.0 | 0.00 | 0.00 | 0.00 | 78 | 1013.3 |
| 20260904171603 | 90 | 1 | 0.0 | 3.0 | 0.00 | 0.00 | 0.00 | 80 | 1013.3 |
| 20260904170056 | 87 | 18 | 0.0 | 3.0 | 0.00 | 0.00 | 0.00 | 85 | 1013.5 |